Regional Weather Roundup
Issued by NWS Northern Indiana

Home | Current Version | Previous Version | Graphics & Text | Print | Product List | Glossary On
Versions: 1 2 3 4 5 6 7 8 9 10 11 12 13 14 15 16 17 18 19 20 21 22 23 24 25 26 27 28 29 30 31 32 33 34 35 36 37 38 39 40 41 42 43 44 45 46 47 48 49 50
000
ASUS43 KIWX 251910
RWRIWX

KIWX WEATHER ROUNDUP
NATIONAL WEATHER SERVICE NORTHERN INDIANA
200 PM EST SUN JAN 25 2015

NOTE: "FAIR" INDICATES FEW OR NO CLOUDS BELOW 12,000 FEET WITH NO
SIGNIFICANT WEATHER AND/OR OBSTRUCTIONS TO VISIBILITY.

* THESE STATIONS ARE NOT UNDER NWS QUALITY CONTROL. THEY ALSO MAY NOT
  REPORT WEATHER SUCH AS PRECIPITATION OR FOG.

INZ001>027-252000-
NORTHERN INDIANA

CITY           SKY/WX    TMP DP  RH WIND       PRES   REMARKS
GARY*          LGT SNOW  32  28  86 NE15G31   29.79R WCI  22
VALPARAISO     SNOW      31  29  92 NE14      29.75S VSB 1/2 WCI  21
MICHIGAN CITY* LGT SNOW  30  28  93 NE8G18    29.79R WCI  23
LAPORTE*       LGT SNOW  32  31  96 NE12G20   29.76S WCI  23
KNOX*          CLOUDY    32  26  78 E14G21    29.73S WCI  22
SOUTH BEND     LGT SNOW  29  25  85 E9        29.78S VSB 1   WCI  20
GOSHEN         LGT SNOW  29  26  89 E17       29.77R VSB 3/4 WCI  17
MONTICELLO*    LGT SNOW  32  32  99 E9        29.69S WCI  25
LOGANSPORT*    LGT SNOW  32  32 100 E14       29.71R VSB 3/4 WCI  22
ROCHESTER*     LGT SNOW  32  32 100 E20       29.73S WCI  20
WARSAW*        LGT SNOW  30  27  86 E18G24    29.75S WCI  18
ANGOLA*        CLOUDY    25  21  86 E13       29.79S WCI  13
FORT WAYNE     LGT SNOW  28  24  85 E23G30    29.75F FOG     WCI  14
HUNTINGTON*    LGT SNOW  28  23  83 E16G23    29.73S VSB 1   WCI  15
PERU/GRISSOM   SNOW      31  29  94 E17       29.69R VSB 1/2 WCI  20
MARION*        SNOW      31  31 100 E14G23    29.69S VSB 1/2 WCI  21

$$
INZ028>050-252000-
CENTRAL INDIANA

CITY           SKY/WX    TMP DP  RH WIND       PRES   REMARKS
LAFAYETTE      LGT SNOW  32  32 100 NE13      29.67S VSB 1   WCI  22
KOKOMO*        CLOUDY    30  28  93 E18       29.69S WCI  18
MUNCIE*        SNOW      33  32  96 E8        29.68R VSB 1/2 WCI  26
INDIANAPOLIS   CLOUDY    36  32  85 E9        29.62F

$$
MIZ043>046-050>051-056>058-064>065-071>073-077>080-252000-
SOUTHWEST LOWER MICHIGAN

CITY           SKY/WX    TMP DP  RH WIND       PRES   REMARKS
BATTLE CREEK   CLOUDY    26  14  60 NE16G24   29.83F WCI  14
BENTON HARBOR  CLOUDY    27  21  78 NE12G22   29.82R WCI  17
COLDWATER*     LGT SNOW  25  21  83 E13       29.81S WCI  14
HILLSDALE*     LGT SNOW  24  20  83 E14       29.80F WCI  12
HOLLAND        CLOUDY    25  13  60 NE13G22   29.88S WCI  14
GRAND RAPIDS   PTSUNNY   21  13  71 NE18      29.89F WCI   6
KALAMAZOO      CLOUDY    27  16  63 NE8G17    29.83S WCI  19
STURGIS*       LGT SNOW  27  23  86 NE12G18   29.79S WCI  16
THREE RIVERS*  CLOUDY    27  22  83 E18G24    29.81F FOG     WCI  13

$$
OHZ001>008-015>018-024>025-252000-
NORTHWEST OHIO

CITY           SKY/WX    TMP DP  RH WIND       PRES   REMARKS
WAUSEON*       LGT SNOW  23  21  93 E16G25    29.82F WCI  10
DEFIANCE       LGT SNOW  26  22  84 NE15G22   29.81S VSB 1   WCI  14
FINDLAY        LGT SNOW  26  22  84 NE21G31   29.78F FOG     WCI  12
TOLEDO EXPRESS LGT SNOW  23  19  85 NE18G25   29.84S FOG     WCI   9
TOLEDO METCALF LGT SNOW  23  16  74 NE17G29   29.86S WCI   9
LIMA           LGT SNOW  30  26  85 NE16      29.73F VSB 1   WCI  19

$$
AND FOR LAKE MICHIGAN COASTAL AND OPEN LAKE BUOY OBSERVATIONS

STATION/POSITION TEMP    WIND        PRES    VSBY  WAVE
                 AIR SEA DIR/SP/G                  HT/PER
                 (F)     (DEG/KT/KT) (MB)    (MI)  (FT/S)
CALUMET HARBOR    30      30/ 18/ 24   N/A
MICHIGAN CITY     28      20/ 21/ 23   N/A
SAINT JOSEPH      28      20/  8/ 14 1010.5S

$$
&&


USA.gov is the U.S. government's official web portal to all federal, state and local government web resources and services.